M I D A S
Marine Information and Data Acquisition System
Tripno 2166 of the Zeeleeuw from 2011-08-18 06:46:36 to 2011-08-18 17:00:00
Back to CruiseResearch ActivitiesStationsMapUnderway DataData graphs

EquipmentUnitsComments
TimeDGPSUTC
LatitudeDGPSDM.mWGS84
LongitudeDGPSDM.mWGS84
SpeedMeteo Stationm/sRelative wind speed
DirectionMeteo StationdegRelative wind direction
TemperatureMeteo Stationdeg CelciusAir temperature
PressureMeteo StationPaAtmospheric pressure
HumidityMeteo Station%Relative humidity
Missing or incorrect values are displayed as -999
Metereological data collected by the RV Zeeleeuw from 2011-08-18 06:30:54 to 2011-08-18 13:55:43
                                                                                    Next 1000 lines
Time Latitude Longitude Speed Direction Temperature Pressure Humidity
2011-08-18 06:31:04 51°13.636 2°56.018 3.5 310 16.2 101400 43
2011-08-18 06:31:09 51°13.636 2°56.019 3.4 27 16.2 101400 42
2011-08-18 06:31:14 51°13.635 2°56.019 3.3 303 16.2 101400 42
2011-08-18 06:31:19 51°13.636 2°56.018 0.5 19 16.2 101410 42
2011-08-18 06:31:23 51°13.635 2°56.018 0.1 306 16.2 101410 42
2011-08-18 06:31:29 51°13.635 2°56.018 0.1 24 16.2 101410 42
2011-08-18 06:31:34 51°13.635 2°56.018 -999 282 16.2 101410 42
2011-08-18 06:31:39 51°13.635 2°56.018 -999 24 16.1 101410 42
2011-08-18 06:31:43 51°13.635 2°56.018 -999 305 16.1 101410 42
2011-08-18 06:31:49 51°13.635 2°56.018 -999 24 16.1 101400 42
2011-08-18 06:31:54 51°13.635 2°56.018 -999 306 16.1 101400 42
2011-08-18 06:31:59 51°13.635 2°56.018 -999 24 16.2 101400 42
2011-08-18 06:32:03 51°13.635 2°56.018 -999 305 16.2 101400 42
2011-08-18 06:32:09 51°13.635 2°56.018 -999 24 16.1 101400 42
2011-08-18 06:32:14 51°13.635 2°56.018 -999 282 16.1 101400 42
2011-08-18 06:32:19 51°13.634 2°56.018 -999 24 16.2 101400 42
2011-08-18 06:32:23 51°13.634 2°56.018 -999 306 16.2 101400 42
2011-08-18 06:32:29 51°13.634 2°56.017 -999 24 16.2 101400 42
2011-08-18 06:32:34 51°13.634 2°56.016 -999 282 16.2 101400 42
2011-08-18 06:32:39 51°13.635 2°56.014 -999 24 16.2 101400 42
2011-08-18 06:32:44 51°13.635 2°56.012 -999 282 16.2 101400 42
2011-08-18 06:32:48 51°13.635 2°56.009 -999 24 16.2 101400 42
2011-08-18 06:32:54 51°13.636 2°56.004 -999 281 16.2 101400 42
2011-08-18 06:32:59 51°13.637 2°56 -999 24 16.2 101400 42
2011-08-18 06:33:03 51°13.638 2°55.995 -999 305 16.2 101400 42
2011-08-18 06:33:10 51°13.64 2°55.987 -999 24 16.2 101400 41
2011-08-18 06:33:16 51°13.641 2°55.979 -999 282 16.2 101400 41
2011-08-18 06:33:21 51°13.643 2°55.972 -999 24 16.2 101400 42
2011-08-18 06:33:27 51°13.645 2°55.963 -999 305 16.2 101400 42
2011-08-18 06:33:32 51°13.647 2°55.955 -999 252 16.2 101400 42
2011-08-18 06:33:37 51°13.649 2°55.947 -999 282 16.2 101400 42
2011-08-18 06:33:42 51°13.652 2°55.939 -999 267 16.2 101410 42
2011-08-18 06:33:47 51°13.655 2°55.931 -999 305 16.2 101410 42
2011-08-18 06:33:52 51°13.657 2°55.923 -999 259 16.2 101400 42
2011-08-18 06:33:57 51°13.66 2°55.914 -999 306 16.2 101400 42
2011-08-18 06:34:02 51°13.663 2°55.905 -999 258 16.2 101400 42
2011-08-18 06:34:07 51°13.667 2°55.897 -999 305 16.2 101400 42
2011-08-18 06:34:12 51°13.67 2°55.889 -999 260 16.2 101400 42
2011-08-18 06:34:18 51°13.675 2°55.878 -999 305 16.2 101400 42
2011-08-18 06:34:22 51°13.678 2°55.872 -999 26 16.2 101400 42
2011-08-18 06:34:27 51°13.683 2°55.863 -999 305 16.2 101400 42
2011-08-18 06:34:32 51°13.687 2°55.855 -999 269 16.2 101400 42
2011-08-18 06:34:37 51°13.691 2°55.847 -999 -999 16.2 101400 42
2011-08-18 06:34:42 51°13.696 2°55.839 -999 259 16.2 101400 42
2011-08-18 06:34:47 51°13.701 2°55.831 -999 306 16.2 101400 42
2011-08-18 06:34:52 51°13.706 2°55.823 -999 257 16.2 101400 42
2011-08-18 06:34:57 51°13.711 2°55.815 -999 282 16.2 101400 42
2011-08-18 06:35:03 51°13.717 2°55.805 -999 265 16.2 101400 42
2011-08-18 06:35:07 51°13.722 2°55.799 -999 306 16.2 101400 42
2011-08-18 06:35:12 51°13.727 2°55.79 -999 35 16.2 101400 42
2011-08-18 06:35:17 51°13.732 2°55.782 -999 310 16.2 101400 42
2011-08-18 06:35:22 51°13.737 2°55.773 -999 264 16.2 101400 42
2011-08-18 06:35:27 51°13.742 2°55.764 -999 305 16.2 101400 42
2011-08-18 06:35:32 51°13.747 2°55.756 -999 267 16.2 101400 43
2011-08-18 06:35:37 51°13.752 2°55.746 -999 282 16.2 101400 43
2011-08-18 06:35:42 51°13.757 2°55.738 -999 30 16.2 101410 42
2011-08-18 06:35:47 51°13.762 2°55.729 -999 307 16.2 101410 42
2011-08-18 06:35:52 51°13.768 2°55.721 0.1 21 16.2 101420 40
2011-08-18 06:35:57 51°13.773 2°55.712 3.9 59 16.2 101420 40
2011-08-18 06:36:02 51°13.779 2°55.704 4.9 23 16.2 101400 42
2011-08-18 06:36:07 51°13.784 2°55.696 5 60 16.2 101400 42
2011-08-18 06:36:12 51°13.79 2°55.689 3.1 20 16.2 101400 42
2011-08-18 06:36:17 51°13.796 2°55.681 3.1 56 16.2 101400 42
2011-08-18 06:36:22 51°13.803 2°55.674 4.7 21 16.2 101410 42
2011-08-18 06:36:27 51°13.809 2°55.667 1.8 52 16.2 101410 42
2011-08-18 06:36:32 51°13.815 2°55.661 1.1 29 16.2 101410 42
2011-08-18 06:36:37 51°13.822 2°55.655 0.1 83 16.2 101410 42
2011-08-18 06:36:42 51°13.828 2°55.65 3.2 22 16.2 101410 42
2011-08-18 06:36:47 51°13.836 2°55.645 2.8 63 16.2 101410 42
2011-08-18 06:36:52 51°13.842 2°55.641 0.2 23 16.2 101410 42
2011-08-18 06:36:57 51°13.849 2°55.638 2.5 80 16.2 101410 42
2011-08-18 06:37:02 51°13.856 2°55.635 3.3 23 16.2 101410 42
2011-08-18 06:37:07 51°13.863 2°55.633 3.8 58 16.2 101410 42
2011-08-18 06:37:12 51°13.87 2°55.631 3.5 22 16.3 101410 41
2011-08-18 06:37:17 51°13.877 2°55.631 4.2 56 16.3 101410 41
2011-08-18 06:37:22 51°13.883 2°55.63 4.3 22 16.2 101410 41
2011-08-18 06:37:27 51°13.889 2°55.631 6.2 58 16.2 101410 41
2011-08-18 06:37:32 51°13.894 2°55.631 5.3 27 16.3 101400 42
2011-08-18 06:37:37 51°13.899 2°55.632 5 75 16.3 101400 42
2011-08-18 06:37:42 51°13.904 2°55.633 4.9 270 16.3 101410 41
2011-08-18 06:37:47 51°13.909 2°55.634 4.2 51 16.3 101410 41
2011-08-18 06:37:52 51°13.913 2°55.635 4.4 23 16.2 101410 42
2011-08-18 06:37:57 51°13.918 2°55.637 4.6 76 16.2 101410 42
2011-08-18 06:38:02 51°13.922 2°55.638 4 25 16.2 101410 42
2011-08-18 06:38:07 51°13.925 2°55.64 3.5 77 16.2 101410 42
2011-08-18 06:38:12 51°13.929 2°55.641 0.1 26 16.2 101400 41
2011-08-18 06:38:17 51°13.932 2°55.643 0.1 55 16.2 101400 41
2011-08-18 06:38:22 51°13.936 2°55.645 -999 25 16.2 101410 42
2011-08-18 06:38:27 51°13.938 2°55.647 -999 55 16.2 101410 42
2011-08-18 06:38:32 51°13.941 2°55.649 0.1 19 16.2 101410 41
2011-08-18 06:38:37 51°13.944 2°55.651 0.1 78 16.2 101410 41
2011-08-18 06:38:42 51°13.947 2°55.653 0.1 24 16.3 101400 42
2011-08-18 06:38:47 51°13.949 2°55.655 -999 55 16.3 101400 42
2011-08-18 06:38:51 51°13.951 2°55.657 -999 24 16.3 101400 42
2011-08-18 06:38:57 51°13.954 2°55.659 -999 54 16.3 101400 42
2011-08-18 06:39:02 51°13.957 2°55.661 -999 24 16.3 101400 42
2011-08-18 06:39:07 51°13.958 2°55.663 1.8 53 16.3 101400 42
2011-08-18 06:39:11 51°13.959 2°55.663 2.9 23 16.3 101410 42
2011-08-18 06:39:16 51°13.96 2°55.663 2.4 80 16.3 101410 42
2011-08-18 06:39:21 51°13.96 2°55.662 0.1 19 16.3 101400 42
2011-08-18 06:39:26 51°13.96 2°55.659 0.1 54 16.3 101400 42
2011-08-18 06:39:31 51°13.959 2°55.655 0.1 43 16.4 101410 41
2011-08-18 06:39:35 51°13.959 2°55.651 -999 38 16.4 101410 41
2011-08-18 06:39:40 51°13.959 2°55.645 -999 39 16.4 101410 42
2011-08-18 06:39:45 51°13.959 2°55.639 -999 22 16.4 101410 42
2011-08-18 06:39:50 51°13.96 2°55.631 -999 18 16.4 101400 42
2011-08-18 06:39:55 51°13.962 2°55.623 -999 13 16.4 101400 42
2011-08-18 06:39:59 51°13.964 2°55.617 -999 8 16.4 101410 42
2011-08-18 06:40:05 51°13.968 2°55.607 3.3 6 16.4 101410 42
2011-08-18 06:40:10 51°13.972 2°55.599 2.7 10 16.4 101400 42
2011-08-18 06:40:15 51°13.977 2°55.59 3.2 9 16.4 101400 42
2011-08-18 06:40:19 51°13.982 2°55.583 0.5 2 16.4 101400 41
2011-08-18 06:40:24 51°13.988 2°55.574 0.1 357 16.4 101400 41
2011-08-18 06:40:29 51°13.995 2°55.565 0.1 358 16.4 101400 41
2011-08-18 06:40:34 51°14.002 2°55.555 0.1 4 16.4 101400 41
2011-08-18 06:40:39 51°14.01 2°55.546 4.2 354 16.4 101400 41
2011-08-18 06:40:43 51°14.017 2°55.539 4.3 359 16.4 101400 41
2011-08-18 06:40:49 51°14.027 2°55.528 4.9 357 16.4 101400 41
2011-08-18 06:40:54 51°14.036 2°55.519 4.7 356 16.4 101400 41
2011-08-18 06:40:59 51°14.045 2°55.509 4.8 359 16.4 101400 41
2011-08-18 06:41:04 51°14.055 2°55.5 6.6 357 16.4 101400 41
2011-08-18 06:41:09 51°14.064 2°55.49 5.9 357 16.4 101400 40
2011-08-18 06:41:14 51°14.074 2°55.481 4.8 354 16.4 101400 40
2011-08-18 06:41:19 51°14.084 2°55.472 4.8 357 16.4 101400 41
2011-08-18 06:41:24 51°14.094 2°55.462 4.3 342 16.4 101400 41
2011-08-18 06:41:29 51°14.104 2°55.452 4.9 351 16.4 101400 41
2011-08-18 06:41:34 51°14.114 2°55.442 5.4 -999 16.4 101400 41
2011-08-18 06:41:39 51°14.124 2°55.432 6.3 354 16.3 101400 41
2011-08-18 06:41:43 51°14.132 2°55.424 5.4 356 16.3 101400 41
2011-08-18 06:41:49 51°14.144 2°55.412 5.3 350 16.3 101400 42
2011-08-18 06:41:54 51°14.155 2°55.402 6.4 279 16.3 101400 42
2011-08-18 06:41:59 51°14.165 2°55.392 6.5 360 16.3 101400 42
2011-08-18 06:42:04 51°14.175 2°55.382 5.2 358 16.3 101400 42
2011-08-18 06:42:09 51°14.185 2°55.372 5.2 353 16.3 101400 41
2011-08-18 06:42:14 51°14.196 2°55.361 6.6 358 16.3 101400 41
2011-08-18 06:42:19 51°14.206 2°55.351 5.7 357 16.3 101400 42
2011-08-18 06:42:24 51°14.216 2°55.34 5.3 350 16.3 101400 42
2011-08-18 06:42:29 51°14.226 2°55.329 6 353 16.3 101400 42
2011-08-18 06:42:34 51°14.237 2°55.319 7 359 16.3 101400 42
2011-08-18 06:42:39 51°14.247 2°55.308 6.2 2 16.3 101400 41
2011-08-18 06:42:44 51°14.257 2°55.297 6.6 4 16.3 101400 41
2011-08-18 06:42:50 51°14.27 2°55.284 8.8 3 16.3 101400 42
2011-08-18 06:42:54 51°14.278 2°55.276 6.4 4 16.3 101400 42
2011-08-18 06:42:59 51°14.289 2°55.265 5.3 3 16.3 101400 42
2011-08-18 06:43:04 51°14.299 2°55.255 5.7 2 16.3 101400 42
2011-08-18 06:43:09 51°14.309 2°55.244 5.9 3 16.3 101390 42
2011-08-18 06:43:15 51°14.322 2°55.231 5 3 16.3 101390 42
2011-08-18 06:43:19 51°14.33 2°55.222 6.4 1 16.3 101390 43
2011-08-18 06:43:24 51°14.341 2°55.212 5.8 -999 16.3 101390 43
2011-08-18 06:43:29 51°14.352 2°55.202 6.9 3 16.3 101390 42
2011-08-18 06:43:34 51°14.362 2°55.192 6.8 -999 16.3 101390 42
2011-08-18 06:43:39 51°14.373 2°55.182 6.8 2 16.3 101390 43
2011-08-18 06:43:43 51°14.382 2°55.174 6.7 3 16.3 101390 43
2011-08-18 06:43:49 51°14.394 2°55.162 6.5 4 16.3 101390 42
2011-08-18 06:43:54 51°14.405 2°55.151 7.6 7 16.3 101390 42
2011-08-18 06:43:59 51°14.415 2°55.14 6.5 4 16.3 101400 43
2011-08-18 06:44:03 51°14.424 2°55.132 6.6 4 16.3 101400 43
2011-08-18 06:44:09 51°14.436 2°55.118 9.7 3 16.4 101390 44
2011-08-18 06:44:14 51°14.446 2°55.107 6.7 3 16.4 101390 44
2011-08-18 06:44:19 51°14.456 2°55.096 6.5 4 16.4 101390 43
2011-08-18 06:44:24 51°14.466 2°55.085 6.1 8 16.4 101390 43
2011-08-18 06:44:29 51°14.476 2°55.073 8.9 8 16.3 101390 43
2011-08-18 06:44:34 51°14.487 2°55.062 6.6 6 16.3 101390 43
2011-08-18 06:44:39 51°14.497 2°55.05 7.2 8 16.3 101390 43
2011-08-18 06:44:43 51°14.505 2°55.041 7 9 16.3 101390 43
2011-08-18 06:44:49 51°14.516 2°55.027 6.2 5 16.3 101390 43
2011-08-18 06:44:54 51°14.526 2°55.014 6.5 8 16.3 101390 43
2011-08-18 06:44:59 51°14.535 2°55.001 10 8 16.3 101390 42
2011-08-18 06:45:03 51°14.543 2°54.99 10.4 9 16.3 101390 42
2011-08-18 06:45:09 51°14.553 2°54.972 6.4 7 16.3 101390 43
2011-08-18 06:45:14 51°14.561 2°54.955 5.6 8 16.3 101390 43
2011-08-18 06:45:19 51°14.57 2°54.938 6.2 8 16.4 101390 43
2011-08-18 06:45:23 51°14.577 2°54.925 10.1 4 16.4 101390 43
2011-08-18 06:45:29 51°14.589 2°54.905 9.5 3 16.4 101390 43
2011-08-18 06:45:34 51°14.599 2°54.888 6.2 4 16.4 101390 43
2011-08-18 06:45:39 51°14.611 2°54.871 10.3 1 16.4 101390 43
2011-08-18 06:45:43 51°14.62 2°54.858 6.4 5 16.4 101390 43
2011-08-18 06:45:49 51°14.634 2°54.838 8.8 5 16.4 101390 43
2011-08-18 06:45:54 51°14.646 2°54.822 9 6 16.4 101390 43
2011-08-18 06:45:59 51°14.658 2°54.806 7.1 5 16.4 101380 43
2011-08-18 06:46:03 51°14.668 2°54.792 7.4 3 16.4 101380 43
2011-08-18 06:46:09 51°14.684 2°54.772 6.6 2 16.4 101380 43
2011-08-18 06:46:14 51°14.697 2°54.756 10.9 2 16.4 101380 43
2011-08-18 06:46:19 51°14.71 2°54.739 6.4 2 16.4 101380 42
2011-08-18 06:46:23 51°14.721 2°54.726 10.1 358 16.4 101380 42
2011-08-18 06:46:29 51°14.737 2°54.706 8.5 360 16.4 101380 41
2011-08-18 06:46:34 51°14.752 2°54.69 10.6 1 16.4 101380 41
2011-08-18 06:46:39 51°14.766 2°54.674 11.2 359 16.5 101390 43
2011-08-18 06:46:43 51°14.777 2°54.661 8.3 358 16.5 101390 43
2011-08-18 06:46:49 51°14.794 2°54.642 9.4 2 16.5 101380 44
2011-08-18 06:46:54 51°14.809 2°54.626 13.6 2 16.5 101380 44
2011-08-18 06:46:59 51°14.823 2°54.61 13.1 359 16.5 101390 43
2011-08-18 06:47:03 51°14.835 2°54.598 11.2 4 16.5 101390 43
2011-08-18 06:47:09 51°14.853 2°54.579 11.2 1 16.5 101370 43
2011-08-18 06:47:14 51°14.867 2°54.564 11.3 2 16.5 101370 43
2011-08-18 06:47:19 51°14.882 2°54.548 11.9 1 16.6 101370 44
2011-08-18 06:47:23 51°14.893 2°54.534 7.9 3 16.6 101370 44
2011-08-18 06:47:28 51°14.907 2°54.518 11.1 4 16.5 101370 43
2011-08-18 06:47:34 51°14.924 2°54.498 8 5 16.5 101370 43
2011-08-18 06:47:39 51°14.938 2°54.48 9.5 6 16.5 101370 43
2011-08-18 06:47:44 51°14.952 2°54.462 10.6 4 16.5 101370 43
2011-08-18 06:47:49 51°14.965 2°54.445 12.7 -999 16.5 101380 43
2011-08-18 06:47:54 51°14.979 2°54.427 11.3 1 16.5 101380 43
2011-08-18 06:47:59 51°14.993 2°54.41 10.7 2 16.5 101380 43
2011-08-18 06:48:03 51°15.004 2°54.396 12.3 360 16.5 101380 43
2011-08-18 06:48:09 51°15.02 2°54.375 10.5 5 16.6 101380 44
2011-08-18 06:48:14 51°15.033 2°54.355 7 5 16.6 101380 44
2011-08-18 06:48:19 51°15.047 2°54.337 10.1 4 16.6 101380 44
2011-08-18 06:48:24 51°15.06 2°54.318 8.1 3 16.6 101380 44
2011-08-18 06:48:29 51°15.073 2°54.301 8.9 360 16.6 101390 43
2011-08-18 06:48:34 51°15.087 2°54.283 10.2 4 16.6 101390 43
2011-08-18 06:48:39 51°15.1 2°54.264 10.2 4 16.6 101390 43
2011-08-18 06:48:44 51°15.113 2°54.246 10.4 3 16.6 101390 43
2011-08-18 06:48:49 51°15.127 2°54.227 10.4 7 16.6 101390 43
2011-08-18 06:48:54 51°15.141 2°54.209 6.5 2 16.6 101390 43
2011-08-18 06:48:59 51°15.154 2°54.191 12.3 1 16.6 101390 43
2011-08-18 06:49:03 51°15.165 2°54.177 12.3 3 16.6 101390 43
2011-08-18 06:49:09 51°15.182 2°54.156 8.6 3 16.6 101390 42
2011-08-18 06:49:14 51°15.196 2°54.138 9.2 -999 16.6 101390 42
2011-08-18 06:49:19 51°15.21 2°54.121 10.9 -999 16.6 101390 44
2011-08-18 06:49:23 51°15.221 2°54.107 8.9 3 16.6 101390 44
2011-08-18 06:49:29 51°15.238 2°54.086 8.9 4 16.6 101380 43
2011-08-18 06:49:34 51°15.252 2°54.068 9.3 -999 16.6 101380 43
2011-08-18 06:49:39 51°15.266 2°54.051 10.6 5 16.6 101390 43
2011-08-18 06:49:43 51°15.277 2°54.037 9.6 6 16.6 101390 43
2011-08-18 06:49:49 51°15.294 2°54.016 9.6 5 16.6 101390 43
2011-08-18 06:49:54 51°15.308 2°53.998 7.9 4 16.6 101390 43
2011-08-18 06:49:59 51°15.322 2°53.981 8.3 8 16.6 101390 43
2011-08-18 06:50:03 51°15.333 2°53.967 9.2 5 16.6 101390 43
2011-08-18 06:50:09 51°15.35 2°53.945 7.4 3 16.6 101380 42
2011-08-18 06:50:14 51°15.363 2°53.927 10 3 16.6 101380 42
2011-08-18 06:50:19 51°15.377 2°53.907 9.8 358 16.6 101390 43
2011-08-18 06:50:24 51°15.39 2°53.889 8.4 3 16.6 101390 43
2011-08-18 06:50:29 51°15.403 2°53.87 9 3 16.6 101390 43
2011-08-18 06:50:34 51°15.416 2°53.851 10.2 2 16.6 101390 43
2011-08-18 06:50:39 51°15.429 2°53.832 9.5 1 16.6 101400 43
2011-08-18 06:50:43 51°15.44 2°53.817 9.3 3 16.6 101400 43
2011-08-18 06:50:49 51°15.456 2°53.794 6.9 1 16.6 101400 43
2011-08-18 06:50:54 51°15.469 2°53.776 11 2 16.6 101400 43
2011-08-18 06:50:59 51°15.483 2°53.757 6.7 4 16.6 101410 42
2011-08-18 06:51:03 51°15.494 2°53.743 8.7 4 16.6 101410 42
2011-08-18 06:51:09 51°15.51 2°53.721 8.7 4 16.6 101390 43
2011-08-18 06:51:14 51°15.523 2°53.702 10.3 6 16.6 101390 43
2011-08-18 06:51:19 51°15.537 2°53.684 8.9 5 16.6 101400 43
2011-08-18 06:51:23 51°15.547 2°53.669 10.1 1 16.6 101400 43
2011-08-18 06:51:29 51°15.564 2°53.648 8.3 1 16.6 101410 43
2011-08-18 06:51:34 51°15.578 2°53.631 11.9 2 16.6 101410 43
2011-08-18 06:51:39 51°15.592 2°53.613 10 2 16.7 101400 44
2011-08-18 06:51:43 51°15.603 2°53.6 8.9 359 16.7 101400 44
2011-08-18 06:51:49 51°15.621 2°53.58 13 1 16.7 101400 42
2011-08-18 06:51:54 51°15.635 2°53.563 11.9 360 16.7 101400 42
2011-08-18 06:51:59 51°15.65 2°53.547 12.4 -999 16.6 101390 43
2011-08-18 06:52:03 51°15.661 2°53.535 12.9 1 16.6 101390 43
2011-08-18 06:52:09 51°15.679 2°53.516 12 1 16.7 101400 43
2011-08-18 06:52:14 51°15.694 2°53.501 10 360 16.7 101400 43
2011-08-18 06:52:19 51°15.709 2°53.486 13.6 358 16.7 101400 43
2011-08-18 06:52:23 51°15.721 2°53.474 11.4 1 16.7 101400 43
2011-08-18 06:52:29 51°15.739 2°53.456 10.4 360 16.7 101400 44
2011-08-18 06:52:34 51°15.754 2°53.442 12.1 359 16.7 101400 44
2011-08-18 06:52:39 51°15.769 2°53.427 14 358 16.7 101400 44
2011-08-18 06:52:43 51°15.781 2°53.415 14.2 358 16.7 101400 44
2011-08-18 06:52:49 51°15.798 2°53.397 10.6 360 16.7 101400 44
2011-08-18 06:52:54 51°15.813 2°53.381 14.2 -999 16.7 101400 44
2011-08-18 06:52:59 51°15.828 2°53.366 10.2 2 16.7 101400 44
2011-08-18 06:53:04 51°15.843 2°53.351 11.9 1 16.7 101400 44
2011-08-18 06:53:09 51°15.858 2°53.337 13.7 358 16.7 101390 44
2011-08-18 06:53:14 51°15.873 2°53.322 9.5 5 16.7 101390 44
2011-08-18 06:53:19 51°15.888 2°53.308 12.8 357 16.7 101400 43
2011-08-18 06:53:24 51°15.904 2°53.294 14.2 359 16.7 101400 43
2011-08-18 06:53:29 51°15.919 2°53.28 13.1 359 16.6 101400 43
2011-08-18 06:53:34 51°15.935 2°53.267 9.3 358 16.6 101400 43
2011-08-18 06:53:39 51°15.95 2°53.253 10.5 358 16.7 101410 44
2011-08-18 06:53:44 51°15.966 2°53.241 11.7 358 16.7 101410 44
2011-08-18 06:53:49 51°15.981 2°53.228 13.1 355 16.7 101400 43
2011-08-18 06:53:54 51°15.997 2°53.215 10.5 358 16.7 101400 43
2011-08-18 06:53:59 51°16.013 2°53.203 15.2 357 16.7 101390 43
2011-08-18 06:54:03 51°16.026 2°53.193 11.1 356 16.7 101390 43
2011-08-18 06:54:09 51°16.044 2°53.178 11.3 357 16.7 101410 44
2011-08-18 06:54:14 51°16.06 2°53.166 13.7 355 16.7 101410 44
2011-08-18 06:54:19 51°16.076 2°53.155 10.5 360 16.7 101400 43
2011-08-18 06:54:24 51°16.092 2°53.142 9.9 357 16.7 101400 43
2011-08-18 06:54:29 51°16.107 2°53.13 13.6 356 16.6 101400 41
2011-08-18 06:54:34 51°16.123 2°53.117 15.5 359 16.6 101400 41
2011-08-18 06:54:39 51°16.138 2°53.105 12.9 359 16.6 101410 43
2011-08-18 06:54:43 51°16.151 2°53.094 14.5 -999 16.6 101410 43
2011-08-18 06:54:49 51°16.169 2°53.078 13.1 1 16.6 101390 43
2011-08-18 06:54:54 51°16.184 2°53.065 9.2 358 16.6 101390 43
2011-08-18 06:54:59 51°16.2 2°53.051 9 1 16.6 101390 43
2011-08-18 06:55:04 51°16.215 2°53.037 13 358 16.6 101390 43
2011-08-18 06:55:09 51°16.23 2°53.023 10.3 357 16.6 101400 42
2011-08-18 06:55:14 51°16.245 2°53.009 12.5 356 16.6 101400 42
2011-08-18 06:55:19 51°16.26 2°52.995 12.5 358 16.6 101410 44
2011-08-18 06:55:24 51°16.275 2°52.981 9.3 357 16.6 101410 44
2011-08-18 06:55:29 51°16.29 2°52.966 10.6 357 16.7 101410 44
2011-08-18 06:55:34 51°16.305 2°52.951 12.9 357 16.7 101410 44
2011-08-18 06:55:39 51°16.32 2°52.937 9.8 356 16.7 101410 43
2011-08-18 06:55:44 51°16.335 2°52.923 13.7 357 16.7 101410 43
2011-08-18 06:55:49 51°16.35 2°52.909 14.7 358 16.7 101410 44
2011-08-18 06:55:54 51°16.365 2°52.896 14.1 359 16.7 101410 44
2011-08-18 06:55:59 51°16.381 2°52.882 13.5 360 16.6 101410 43
2011-08-18 06:56:04 51°16.396 2°52.869 10.1 2 16.6 101410 43
2011-08-18 06:56:09 51°16.412 2°52.857 9.1 2 16.6 101410 43
2011-08-18 06:56:14 51°16.427 2°52.844 10.8 356 16.6 101410 43
2011-08-18 06:56:19 51°16.443 2°52.832 11.9 356 16.6 101400 43
2011-08-18 06:56:23 51°16.456 2°52.822 15.2 357 16.6 101400 43
2011-08-18 06:56:29 51°16.474 2°52.808 4.4 356 16.6 101400 43
2011-08-18 06:56:34 51°16.49 2°52.796 17.1 357 16.6 101400 43
2011-08-18 06:56:39 51°16.506 2°52.785 14.7 356 16.7 101410 44
2011-08-18 06:56:43 51°16.519 2°52.775 10.4 356 16.7 101410 44
2011-08-18 06:56:48 51°16.535 2°52.763 11.3 356 16.6 101410 43
2011-08-18 06:56:54 51°16.554 2°52.749 9.2 1 16.6 101410 43
2011-08-18 06:56:59 51°16.569 2°52.738 10.9 357 16.6 101400 43
2011-08-18 06:57:04 51°16.585 2°52.727 13.7 355 16.6 101400 43
2011-08-18 06:57:09 51°16.601 2°52.716 10.5 353 16.6 101410 42
2011-08-18 06:57:14 51°16.617 2°52.705 14.3 355 16.6 101410 42
2011-08-18 06:57:19 51°16.633 2°52.694 9.3 356 16.6 101410 42
2011-08-18 06:57:23 51°16.646 2°52.686 16 354 16.6 101410 42
2011-08-18 06:57:29 51°16.665 2°52.673 15.3 355 16.6 101420 44
2011-08-18 06:57:34 51°16.682 2°52.663 14.7 354 16.6 101420 44
2011-08-18 06:57:39 51°16.698 2°52.653 11.5 354 16.6 101410 44
2011-08-18 06:57:43 51°16.71 2°52.644 10.9 355 16.6 101410 44
2011-08-18 06:57:49 51°16.73 2°52.632 11 355 16.6 101410 43
2011-08-18 06:57:54 51°16.746 2°52.621 10.8 355 16.6 101410 43
2011-08-18 06:57:59 51°16.762 2°52.611 12.8 358 16.6 101410 43
2011-08-18 06:58:04 51°16.778 2°52.601 10.5 353 16.6 101410 43
2011-08-18 06:58:09 51°16.794 2°52.59 12.8 357 16.6 101400 43
2011-08-18 06:58:14 51°16.81 2°52.579 10.9 358 16.6 101400 43
2011-08-18 06:58:19 51°16.826 2°52.569 14 356 16.5 101410 42
2011-08-18 06:58:23 51°16.839 2°52.561 11 356 16.5 101410 42
2011-08-18 06:58:29 51°16.858 2°52.549 13.9 357 16.6 101410 43
2011-08-18 06:58:34 51°16.874 2°52.538 14.4 -999 16.6 101410 43
2011-08-18 06:58:39 51°16.89 2°52.527 11 356 16.5 101410 43
2011-08-18 06:58:43 51°16.903 2°52.518 10.6 356 16.5 101410 43
2011-08-18 06:58:49 51°16.922 2°52.505 10.4 358 16.6 101420 43
2011-08-18 06:58:54 51°16.937 2°52.493 14.4 359 16.6 101420 43
2011-08-18 06:58:59 51°16.953 2°52.481 13.4 360 16.6 101420 43
2011-08-18 06:59:03 51°16.965 2°52.471 12.4 358 16.6 101420 43
2011-08-18 06:59:08 51°16.981 2°52.458 12.8 1 16.6 101420 44
2011-08-18 06:59:14 51°16.999 2°52.443 8.4 -999 16.6 101420 44
2011-08-18 06:59:19 51°17.014 2°52.429 9.9 -999 16.6 101420 43
2011-08-18 06:59:24 51°17.03 2°52.416 9.8 360 16.6 101420 43
2011-08-18 06:59:29 51°17.045 2°52.404 9.4 2 16.6 101420 43
2011-08-18 06:59:34 51°17.061 2°52.391 9 2 16.6 101420 43
2011-08-18 06:59:39 51°17.076 2°52.379 11.9 2 16.6 101420 43
2011-08-18 06:59:44 51°17.092 2°52.366 11.1 2 16.6 101420 43
2011-08-18 06:59:49 51°17.108 2°52.354 9.7 -999 16.6 101420 42
2011-08-18 06:59:54 51°17.124 2°52.342 10.6 360 16.6 101420 42
2011-08-18 06:59:59 51°17.139 2°52.33 9.9 358 16.5 101420 43
2011-08-18 07:00:04 51°17.155 2°52.319 9.1 355 16.5 101420 43
2011-08-18 07:00:09 51°17.172 2°52.308 15.6 356 16.6 101420 43
2011-08-18 07:00:14 51°17.187 2°52.297 12.5 356 16.6 101420 43
2011-08-18 07:00:19 51°17.204 2°52.286 13.8 358 16.6 101430 44
2011-08-18 07:00:24 51°17.219 2°52.275 10 357 16.6 101430 44
2011-08-18 07:00:29 51°17.235 2°52.264 14.5 356 16.6 101420 44
2011-08-18 07:00:34 51°17.252 2°52.253 14.2 359 16.6 101420 44
2011-08-18 07:00:39 51°17.268 2°52.242 9.4 358 16.6 101410 43
2011-08-18 07:00:43 51°17.28 2°52.233 10 3 16.6 101410 43
2011-08-18 07:00:49 51°17.3 2°52.219 10.4 359 16.6 101410 44
2011-08-18 07:00:54 51°17.316 2°52.208 9.5 358 16.6 101410 44
2011-08-18 07:00:59 51°17.332 2°52.197 14.9 358 16.6 101410 43
2011-08-18 07:01:03 51°17.344 2°52.188 11.4 359 16.6 101410 43
2011-08-18 07:01:09 51°17.364 2°52.174 9.7 2 16.6 101420 43
2011-08-18 07:01:14 51°17.38 2°52.163 10 360 16.6 101420 43
2011-08-18 07:01:19 51°17.395 2°52.151 10.4 358 16.6 101420 44
2011-08-18 07:01:24 51°17.411 2°52.139 9.3 -999 16.6 101420 44
2011-08-18 07:01:28 51°17.424 2°52.13 9.9 359 16.6 101420 44
2011-08-18 07:01:34 51°17.443 2°52.115 12 357 16.6 101420 44
2011-08-18 07:01:39 51°17.459 2°52.103 13.9 356 16.6 101420 44
2011-08-18 07:01:43 51°17.471 2°52.093 11.1 355 16.6 101420 44
2011-08-18 07:01:49 51°17.49 2°52.078 14.1 358 16.6 101420 43
2011-08-18 07:01:54 51°17.506 2°52.066 11.2 359 16.6 101420 43
2011-08-18 07:01:59 51°17.521 2°52.053 12.5 -999 16.6 101420 44
2011-08-18 07:02:04 51°17.537 2°52.04 10.8 359 16.6 101420 44
2011-08-18 07:02:09 51°17.552 2°52.027 10 1 16.6 101420 43
2011-08-18 07:02:14 51°17.568 2°52.015 10 357 16.6 101420 43
2011-08-18 07:02:19 51°17.583 2°52.002 13.2 355 16.6 101420 43
2011-08-18 07:02:24 51°17.599 2°51.989 10.1 355 16.6 101420 43
2011-08-18 07:02:29 51°17.614 2°51.977 12.4 358 16.6 101420 42
2011-08-18 07:02:34 51°17.63 2°51.963 9.3 357 16.6 101420 42
2011-08-18 07:02:39 51°17.646 2°51.951 13 357 16.6 101430 44
2011-08-18 07:02:43 51°17.658 2°51.942 11.4 358 16.6 101430 44
2011-08-18 07:02:49 51°17.677 2°51.927 10.2 358 16.6 101420 44
2011-08-18 07:02:54 51°17.693 2°51.916 13.3 359 16.6 101420 44
2011-08-18 07:02:59 51°17.709 2°51.904 14.2 360 16.6 101420 43
2011-08-18 07:03:03 51°17.721 2°51.894 9.7 357 16.6 101420 43
2011-08-18 07:03:09 51°17.74 2°51.88 10 359 16.6 101420 44
2011-08-18 07:03:14 51°17.756 2°51.868 12.1 359 16.6 101420 44
2011-08-18 07:03:19 51°17.771 2°51.855 9.8 359 16.6 101420 44
2011-08-18 07:03:24 51°17.787 2°51.845 14.6 358 16.6 101420 44
2011-08-18 07:03:28 51°17.8 2°51.836 12.4 358 16.6 101430 43
2011-08-18 07:03:34 51°17.819 2°51.822 11.9 -999 16.6 101430 43
2011-08-18 07:03:39 51°17.835 2°51.811 10.8 355 16.6 101420 44
2011-08-18 07:03:43 51°17.848 2°51.803 9.5 355 16.6 101420 44
2011-08-18 07:03:49 51°17.868 2°51.79 10.7 357 16.6 101420 44
2011-08-18 07:03:54 51°17.884 2°51.779 15.1 355 16.6 101420 44
2011-08-18 07:03:59 51°17.9 2°51.768 13.9 359 16.6 101430 45
2011-08-18 07:04:04 51°17.916 2°51.756 14.2 358 16.6 101430 45
2011-08-18 07:04:09 51°17.932 2°51.745 9.5 1 16.6 101420 44
2011-08-18 07:04:14 51°17.947 2°51.733 9.9 356 16.6 101420 44
2011-08-18 07:04:19 51°17.963 2°51.72 10.7 358 16.6 101420 43
2011-08-18 07:04:23 51°17.976 2°51.711 13.7 359 16.6 101420 43
2011-08-18 07:04:29 51°17.994 2°51.695 14.9 357 16.6 101410 43
2011-08-18 07:04:34 51°18.01 2°51.683 12.9 357 16.6 101410 43
2011-08-18 07:04:39 51°18.026 2°51.67 10.8 357 16.6 101420 44
2011-08-18 07:04:43 51°18.038 2°51.659 13.2 357 16.6 101420 44
2011-08-18 07:04:49 51°18.057 2°51.645 14 359 16.6 101420 44
2011-08-18 07:04:54 51°18.073 2°51.633 10.7 356 16.6 101420 44
2011-08-18 07:04:59 51°18.089 2°51.621 10.4 358 16.6 101420 44
2011-08-18 07:05:03 51°18.102 2°51.612 14.8 359 16.6 101420 44
2011-08-18 07:05:09 51°18.121 2°51.598 14 357 16.6 101410 42
2011-08-18 07:05:14 51°18.137 2°51.587 9.7 354 16.6 101410 42
2011-08-18 07:05:19 51°18.154 2°51.578 10.8 356 16.6 101420 44
2011-08-18 07:05:23 51°18.167 2°51.57 13.3 356 16.6 101420 44
2011-08-18 07:05:29 51°18.186 2°51.557 12.2 356 16.6 101420 44
2011-08-18 07:05:34 51°18.203 2°51.547 14.4 355 16.6 101420 44
2011-08-18 07:05:39 51°18.219 2°51.537 13.3 355 16.6 101420 44
2011-08-18 07:05:43 51°18.232 2°51.53 14.4 357 16.6 101420 44
2011-08-18 07:05:49 51°18.252 2°51.517 14.4 357 16.6 101420 44
2011-08-18 07:05:54 51°18.268 2°51.506 10.1 358 16.6 101420 44
2011-08-18 07:05:59 51°18.284 2°51.495 12.1 359 16.6 101410 44
2011-08-18 07:06:03 51°18.297 2°51.485 13.5 358 16.6 101410 44
2011-08-18 07:06:09 51°18.316 2°51.471 12.4 358 16.6 101420 44
2011-08-18 07:06:14 51°18.332 2°51.459 14.7 357 16.6 101420 44
2011-08-18 07:06:19 51°18.348 2°51.447 11.1 356 16.6 101420 44
2011-08-18 07:06:23 51°18.361 2°51.438 12.9 358 16.6 101420 44
2011-08-18 07:06:29 51°18.38 2°51.424 11.1 356 16.6 101420 44
2011-08-18 07:06:34 51°18.396 2°51.412 13.1 356 16.6 101420 44
2011-08-18 07:06:39 51°18.412 2°51.401 10.8 358 16.6 101420 45
2011-08-18 07:06:44 51°18.428 2°51.389 10.5 358 16.6 101420 45
2011-08-18 07:06:49 51°18.444 2°51.377 9.9 358 16.7 101420 45
2011-08-18 07:06:54 51°18.46 2°51.364 10 358 16.7 101420 45
2011-08-18 07:06:59 51°18.475 2°51.351 13.6 359 16.6 101420 44
2011-08-18 07:07:04 51°18.491 2°51.339 14.8 359 16.6 101420 44
2011-08-18 07:07:09 51°18.507 2°51.326 14.6 358 16.6 101410 45
2011-08-18 07:07:14 51°18.522 2°51.313 10 359 16.6 101410 45
2011-08-18 07:07:19 51°18.538 2°51.3 15.3 360 16.6 101420 44
2011-08-18 07:07:23 51°18.551 2°51.29 8.7 358 16.6 101420 44
2011-08-18 07:07:29 51°18.57 2°51.276 14.3 357 16.6 101420 44
2011-08-18 07:07:34 51°18.586 2°51.263 12.7 358 16.6 101420 44
2011-08-18 07:07:39 51°18.602 2°51.251 11.1 359 16.5 101410 44
2011-08-18 07:07:43 51°18.615 2°51.242 13.5 358 16.5 101410 44
2011-08-18 07:07:49 51°18.634 2°51.228 10.9 359 16.6 101420 43
2011-08-18 07:07:54 51°18.65 2°51.215 9 -999 16.6 101420 43
2011-08-18 07:07:59 51°18.666 2°51.202 10.3 358 16.5 101410 44
2011-08-18 07:08:03 51°18.678 2°51.191 13.3 358 16.5 101410 44
2011-08-18 07:08:09 51°18.697 2°51.175 13.5 359 16.5 101410 44
2011-08-18 07:08:14 51°18.713 2°51.162 10.5 359 16.5 101410 44
2011-08-18 07:08:19 51°18.728 2°51.148 9.5 358 16.6 101420 45
2011-08-18 07:08:24 51°18.744 2°51.135 9.5 358 16.6 101420 45
2011-08-18 07:08:29 51°18.76 2°51.121 12 357 16.6 101420 45
2011-08-18 07:08:34 51°18.775 2°51.108 10 358 16.6 101420 45
2011-08-18 07:08:39 51°18.791 2°51.095 9.5 359 16.6 101420 45
2011-08-18 07:08:43 51°18.804 2°51.085 14.6 1 16.6 101420 45
2011-08-18 07:08:49 51°18.822 2°51.07 11.9 1 16.6 101420 44
2011-08-18 07:08:54 51°18.838 2°51.057 9.7 359 16.6 101420 44
2011-08-18 07:08:59 51°18.854 2°51.044 9.8 356 16.6 101420 44
2011-08-18 07:09:03 51°18.867 2°51.034 12.7 356 16.6 101420 44
2011-08-18 07:09:09 51°18.886 2°51.019 13.6 356 16.6 101410 45
2011-08-18 07:09:14 51°18.902 2°51.008 11.7 354 16.6 101410 45
2011-08-18 07:09:19 51°18.918 2°50.995 10.5 355 16.6 101420 44
2011-08-18 07:09:24 51°18.934 2°50.983 13.3 354 16.6 101420 44
2011-08-18 07:09:29 51°18.949 2°50.971 14.5 355 16.6 101420 45
2011-08-18 07:09:34 51°18.965 2°50.959 11.6 276 16.6 101420 45
2011-08-18 07:09:39 51°18.981 2°50.946 12.9 358 16.6 101420 44
2011-08-18 07:09:43 51°18.994 2°50.937 12.3 355 16.6 101420 44
2011-08-18 07:09:49 51°19.013 2°50.922 12.5 356 16.6 101420 44
2011-08-18 07:09:54 51°19.029 2°50.91 10.5 357 16.6 101420 44
2011-08-18 07:09:59 51°19.045 2°50.898 14.5 356 16.6 101420 44
2011-08-18 07:10:03 51°19.058 2°50.889 10.8 357 16.6 101420 44
2011-08-18 07:10:09 51°19.077 2°50.875 12.8 358 16.6 101400 44
2011-08-18 07:10:14 51°19.093 2°50.863 11 357 16.6 101400 44
2011-08-18 07:10:19 51°19.109 2°50.851 10.6 359 16.5 101410 44
2011-08-18 07:10:23 51°19.122 2°50.841 13.8 359 16.5 101410 44
2011-08-18 07:10:29 51°19.141 2°50.826 12.7 359 16.5 101410 43
2011-08-18 07:10:34 51°19.156 2°50.814 13.4 359 16.5 101410 43
2011-08-18 07:10:39 51°19.172 2°50.801 5.6 358 16.5 101400 44
2011-08-18 07:10:44 51°19.188 2°50.788 10.5 359 16.5 101400 44
2011-08-18 07:10:49 51°19.204 2°50.775 9.2 355 16.5 101410 44
2011-08-18 07:10:54 51°19.219 2°50.762 10.4 359 16.5 101410 44
2011-08-18 07:10:59 51°19.235 2°50.749 9.7 358 16.5 101410 43
2011-08-18 07:11:04 51°19.251 2°50.736 12 359 16.5 101410 43
2011-08-18 07:11:09 51°19.266 2°50.724 9.8 358 16.6 101420 45
2011-08-18 07:11:14 51°19.283 2°50.711 13.9 356 16.6 101420 45
2011-08-18 07:11:19 51°19.298 2°50.698 12.9 355 16.6 101420 45
2011-08-18 07:11:24 51°19.314 2°50.686 10.9 356 16.6 101420 45
2011-08-18 07:11:29 51°19.33 2°50.673 11.6 356 16.6 101420 44
2011-08-18 07:11:34 51°19.346 2°50.66 12.2 359 16.6 101420 44
2011-08-18 07:11:39 51°19.362 2°50.647 10.4 359 16.6 101420 45
2011-08-18 07:11:44 51°19.377 2°50.634 11.2 358 16.6 101420 45
2011-08-18 07:11:49 51°19.393 2°50.621 10.2 355 16.6 101420 44
2011-08-18 07:11:54 51°19.409 2°50.608 12.8 356 16.6 101420 44
2011-08-18 07:11:59 51°19.425 2°50.595 10.2 357 16.6 101410 44
2011-08-18 07:12:03 51°19.437 2°50.584 14.1 357 16.6 101410 44
2011-08-18 07:12:09 51°19.457 2°50.57 11.6 357 16.6 101430 44
2011-08-18 07:12:14 51°19.473 2°50.556 11.2 357 16.6 101430 44
2011-08-18 07:12:19 51°19.488 2°50.544 10.4 358 16.6 101420 44
2011-08-18 07:12:23 51°19.501 2°50.534 10 357 16.6 101420 44
2011-08-18 07:12:29 51°19.521 2°50.52 10.9 357 16.6 101420 44
2011-08-18 07:12:34 51°19.537 2°50.508 10.2 356 16.6 101420 44
2011-08-18 07:12:39 51°19.553 2°50.495 10.8 358 16.5 101410 44
2011-08-18 07:12:43 51°19.566 2°50.486 9.8 358 16.5 101410 44
2011-08-18 07:12:48 51°19.582 2°50.473 9.4 356 16.5 101410 43
2011-08-18 07:12:54 51°19.601 2°50.457 9.3 353 16.5 101410 43
2011-08-18 07:12:59 51°19.617 2°50.444 12.6 354 16.5 101430 44
2011-08-18 07:13:03 51°19.629 2°50.433 10.7 357 16.5 101430 44
2011-08-18 07:13:09 51°19.648 2°50.417 13.3 356 16.6 101420 43
2011-08-18 07:13:14 51°19.664 2°50.403 15.5 355 16.6 101420 43
2011-08-18 07:13:19 51°19.68 2°50.389 10.5 355 16.6 101430 45
2011-08-18 07:13:23 51°19.693 2°50.378 10.7 355 16.6 101430 45
2011-08-18 07:13:29 51°19.712 2°50.363 10.8 356 16.6 101430 44
2011-08-18 07:13:34 51°19.728 2°50.35 10.5 354 16.6 101430 44
2011-08-18 07:13:39 51°19.744 2°50.338 10.3 354 16.6 101410 44
2011-08-18 07:13:43 51°19.757 2°50.328 10.2 353 16.6 101410 44
2011-08-18 07:13:49 51°19.776 2°50.313 12.3 355 16.6 101420 44
2011-08-18 07:13:54 51°19.792 2°50.301 12.9 355 16.6 101420 44
2011-08-18 07:13:59 51°19.808 2°50.289 15.4 355 16.6 101420 44
2011-08-18 07:14:04 51°19.824 2°50.277 11.5 355 16.6 101420 44
2011-08-18 07:14:08 51°19.837 2°50.267 14.6 356 16.6 101420 44
2011-08-18 07:14:14 51°19.856 2°50.252 9.7 358 16.6 101420 44
2011-08-18 07:14:19 51°19.872 2°50.239 13.8 358 16.5 101410 43
2011-08-18 07:14:23 51°19.885 2°50.229 14.4 357 16.5 101410 43
2011-08-18 07:14:29 51°19.904 2°50.213 15.1 357 16.5 101400 44
2011-08-18 07:14:34 51°19.92 2°50.2 12.8 358 16.5 101400 44
2011-08-18 07:14:39 51°19.935 2°50.186 12 359 16.5 101420 43
2011-08-18 07:14:43 51°19.948 2°50.175 12.6 358 16.5 101420 43
2011-08-18 07:14:48 51°19.963 2°50.161 14.8 358 16.5 101420 44
2011-08-18 07:14:54 51°19.982 2°50.145 12.7 357 16.5 101420 44
2011-08-18 07:14:59 51°19.998 2°50.131 10.4 356 16.5 101420 44
2011-08-18 07:15:03 51°20.01 2°50.12 13 354 16.5 101420 44
2011-08-18 07:15:08 51°20.026 2°50.106 14.1 354 16.5 101430 43
2011-08-18 07:15:14 51°20.045 2°50.091 13.6 354 16.5 101430 43
2011-08-18 07:15:19 51°20.061 2°50.077 11.4 355 16.5 101420 43
2011-08-18 07:15:23 51°20.074 2°50.066 14.3 358 16.5 101420 43
2011-08-18 07:15:29 51°20.092 2°50.051 14.3 356 16.5 101420 44
2011-08-18 07:15:34 51°20.108 2°50.038 12.9 357 16.5 101420 44
2011-08-18 07:15:39 51°20.124 2°50.026 15.1 356 16.6 101430 43
2011-08-18 07:15:43 51°20.137 2°50.016 10.9 358 16.6 101430 43
2011-08-18 07:15:49 51°20.156 2°50.001 10.5 358 16.6 101410 42
2011-08-18 07:15:54 51°20.172 2°49.99 12.7 358 16.6 101410 42
2011-08-18 07:15:59 51°20.187 2°49.978 10.1 355 16.6 101410 44
2011-08-18 07:16:04 51°20.203 2°49.967 9.9 354 16.6 101410 44
2011-08-18 07:16:09 51°20.219 2°49.956 12.7 354 16.6 101400 44
2011-08-18 07:16:14 51°20.235 2°49.944 14.5 355 16.6 101400 44
2011-08-18 07:16:19 51°20.251 2°49.933 10.2 357 16.6 101420 44
2011-08-18 07:16:24 51°20.267 2°49.922 9.6 357 16.6 101420 44
2011-08-18 07:16:28 51°20.279 2°49.913 11.9 356 16.6 101420 44
2011-08-18 07:16:34 51°20.298 2°49.899 9.7 355 16.6 101420 44
2011-08-18 07:16:39 51°20.314 2°49.888 12.3 357 16.6 101420 43
2011-08-18 07:16:43 51°20.327 2°49.88 10.9 355 16.6 101420 43
2011-08-18 07:16:48 51°20.343 2°49.869 14.8 352 16.6 101420 44
2011-08-18 07:16:54 51°20.362 2°49.856 15.4 357 16.6 101420 44
2011-08-18 07:16:59 51°20.378 2°49.845 10.3 357 16.6 101420 44
2011-08-18 07:17:03 51°20.391 2°49.836 11 356 16.6 101420 44
2011-08-18 07:17:09 51°20.41 2°49.822 10.1 355 16.6 101420 44
2011-08-18 07:17:14 51°20.426 2°49.811 15.8 356 16.6 101420 44
2011-08-18 07:17:19 51°20.442 2°49.798 15.7 356 16.6 101410 44
2011-08-18 07:17:23 51°20.454 2°49.788 13.4 358 16.6 101410 44
2011-08-18 07:17:29 51°20.473 2°49.772 15.1 357 16.6 101430 44
2011-08-18 07:17:34 51°20.489 2°49.76 13.2 357 16.6 101430 44
2011-08-18 07:17:39 51°20.504 2°49.746 11.4 356 16.6 101420 44
2011-08-18 07:17:44 51°20.52 2°49.733 9.5 358 16.6 101420 44
2011-08-18 07:17:48 51°20.532 2°49.722 16 358 16.6 101410 44
2011-08-18 07:17:54 51°20.551 2°49.705 15.7 358 16.6 101410 44
2011-08-18 07:17:59 51°20.566 2°49.691 9.7 356 16.6 101410 44
2011-08-18 07:18:04 51°20.582 2°49.678 9.9 357 16.6 101410 44
2011-08-18 07:18:08 51°20.595 2°49.668 9 358 16.6 101410 44
2011-08-18 07:18:14 51°20.614 2°49.653 11.6 357 16.6 101410 44
2011-08-18 07:18:19 51°20.63 2°49.641 13.6 355 16.6 101410 44
2011-08-18 07:18:23 51°20.643 2°49.631 11.1 356 16.6 101410 44
2011-08-18 07:18:29 51°20.662 2°49.616 9.4 357 16.6 101420 42
2011-08-18 07:18:34 51°20.678 2°49.604 10.8 355 16.6 101420 42
2011-08-18 07:18:39 51°20.694 2°49.592 13.5 356 16.6 101420 44
2011-08-18 07:18:43 51°20.707 2°49.582 13.5 353 16.6 101420 44
2011-08-18 07:18:49 51°20.726 2°49.568 13.3 352 16.6 101420 44
2011-08-18 07:18:54 51°20.742 2°49.556 12.7 353 16.6 101420 44
2011-08-18 07:18:59 51°20.759 2°49.543 9.4 356 16.6 101420 45
2011-08-18 07:19:03 51°20.772 2°49.534 17 356 16.6 101420 45
2011-08-18 07:19:09 51°20.791 2°49.519 10.5 357 16.7 101410 45
2011-08-18 07:19:14 51°20.807 2°49.506 6.2 358 16.7 101410 45
2011-08-18 07:19:19 51°20.823 2°49.494 12.9 355 16.7 101420 45
2011-08-18 07:19:23 51°20.837 2°49.484 10.1 358 16.7 101420 45
2011-08-18 07:19:29 51°20.856 2°49.47 9.3 352 16.7 101410 45
2011-08-18 07:19:34 51°20.873 2°49.458 10.2 353 16.7 101410 45
2011-08-18 07:19:39 51°20.889 2°49.446 11.3 353 16.7 101410 45
2011-08-18 07:19:43 51°20.902 2°49.437 11.9 355 16.7 101410 45
2011-08-18 07:19:48 51°20.919 2°49.425 14 354 16.7 101430 46
2011-08-18 07:19:53 51°20.935 2°49.413 15.5 356 16.7 101430 46
2011-08-18 07:19:59 51°20.955 2°49.398 10.4 356 16.7 101420 46
2011-08-18 07:20:03 51°20.968 2°49.388 12.5 354 16.7 101420 46
2011-08-18 07:20:08 51°20.984 2°49.375 15.9 354 16.7 101410 46
2011-08-18 07:20:13 51°21 2°49.362 16.1 353 16.7 101410 46
2011-08-18 07:20:19 51°21.02 2°49.347 11.9 354 16.7 101410 46
2011-08-18 07:20:23 51°21.033 2°49.337 11 355 16.7 101410 46
2011-08-18 07:20:28 51°21.049 2°49.325 11.9 355 16.7 101420 45
2011-08-18 07:20:33 51°21.066 2°49.312 12.4 355 16.7 101420 45
2011-08-18 07:20:39 51°21.085 2°49.298 16.5 354 16.6 101410 45
2011-08-18 07:20:43 51°21.098 2°49.288 11.8 353 16.6 101410 45
2011-08-18 07:20:49 51°21.118 2°49.273 11.8 355 16.6 101410 44
2011-08-18 07:20:54 51°21.134 2°49.261 10.6 355 16.6 101410 44
2011-08-18 07:20:59 51°21.151 2°49.249 10.5 357 16.6 101410 44
2011-08-18 07:21:03 51°21.164 2°49.239 15.4 357 16.6 101410 44
2011-08-18 07:21:09 51°21.183 2°49.225 12.7 355 16.5 101410 43
2011-08-18 07:21:14 51°21.2 2°49.212 10.2 354 16.5 101410 43
2011-08-18 07:21:19 51°21.216 2°49.2 13 350 16.5 101420 44
2011-08-18 07:21:23 51°21.229 2°49.19 14.2 352 16.5 101420 44
2011-08-18 07:21:28 51°21.245 2°49.177 12.8 354 16.6 101420 44
2011-08-18 07:21:34 51°21.265 2°49.162 11.7 354 16.6 101420 44
2011-08-18 07:21:39 51°21.281 2°49.15 9.9 353 16.6 101420 45
2011-08-18 07:21:43 51°21.294 2°49.14 9.8 354 16.6 101420 45
2011-08-18 07:21:48 51°21.311 2°49.128 10.6 353 16.6 101420 45
2011-08-18 07:21:54 51°21.33 2°49.113 10.6 277 16.6 101420 45
2011-08-18 07:21:59 51°21.346 2°49.101 13.9 354 16.6 101420 45
2011-08-18 07:22:03 51°21.36 2°49.092 11.8 356 16.6 101420 45
2011-08-18 07:22:09 51°21.379 2°49.077 10.9 350 16.7 101430 45
2011-08-18 07:22:14 51°21.396 2°49.065 15.2 354 16.7 101430 45
2011-08-18 07:22:19 51°21.412 2°49.053 13.7 354 16.7 101430 45
2011-08-18 07:22:23 51°21.425 2°49.044 13.5 353 16.7 101430 45
2011-08-18 07:22:28 51°21.442 2°49.032 15 355 16.6 101410 45
2011-08-18 07:22:34 51°21.462 2°49.019 14.7 354 16.6 101410 45
2011-08-18 07:22:39 51°21.478 2°49.007 14.1 354 16.6 101420 45
2011-08-18 07:22:43 51°21.492 2°48.998 14.1 354 16.6 101420 45
2011-08-18 07:22:49 51°21.512 2°48.984 11.5 358 16.6 101420 45
2011-08-18 07:22:54 51°21.528 2°48.972 14.3 277 16.6 101420 45
2011-08-18 07:22:59 51°21.544 2°48.96 13.3 353 16.6 101420 45
2011-08-18 07:23:03 51°21.558 2°48.951 12.6 354 16.6 101420 45
2011-08-18 07:23:09 51°21.577 2°48.937 15.2 355 16.6 101420 45
2011-08-18 07:23:14 51°21.594 2°48.924 12.8 355 16.6 101420 45
2011-08-18 07:23:19 51°21.61 2°48.912 11 355 16.6 101410 45
2011-08-18 07:23:23 51°21.623 2°48.901 14.4 356 16.6 101410 45
2011-08-18 07:23:29 51°21.642 2°48.885 14.4 357 16.6 101410 45
2011-08-18 07:23:34 51°21.658 2°48.872 13.1 355 16.6 101410 45
2011-08-18 07:23:39 51°21.674 2°48.859 13.7 355 16.6 101410 44
2011-08-18 07:23:43 51°21.687 2°48.849 9.8 352 16.6 101410 44
2011-08-18 07:23:48 51°21.703 2°48.836 10.8 354 16.5 101410 42
2011-08-18 07:23:54 51°21.722 2°48.821 12.6 356 16.5 101410 42
2011-08-18 07:23:59 51°21.739 2°48.809 11.6 358 16.5 101410 44
2011-08-18 07:24:03 51°21.752 2°48.799 14.8 358 16.5 101410 44
2011-08-18 07:24:08 51°21.768 2°48.787 11.7 358 16.5 101420 44
2011-08-18 07:24:14 51°21.788 2°48.773 6.5 358 16.5 101420 44
2011-08-18 07:24:19 51°21.804 2°48.761 12.9 358 16.5 101420 44
2011-08-18 07:24:23 51°21.818 2°48.751 13.4 358 16.5 101420 44
2011-08-18 07:24:28 51°21.834 2°48.738 11.3 356 16.5 101420 44
2011-08-18 07:24:34 51°21.854 2°48.724 10.7 358 16.5 101420 44
2011-08-18 07:24:39 51°21.871 2°48.711 15 357 16.5 101430 43
2011-08-18 07:24:43 51°21.884 2°48.702 13.8 357 16.5 101430 43
2011-08-18 07:24:49 51°21.904 2°48.687 14 355 16.5 101420 44
2011-08-18 07:24:54 51°21.92 2°48.675 11.9 353 16.5 101420 44
2011-08-18 07:24:59 51°21.937 2°48.663 11.2 354 16.6 101430 44
2011-08-18 07:25:03 51°21.95 2°48.653 16.7 355 16.6 101430 44
2011-08-18 07:25:08 51°21.966 2°48.642 11.5 354 16.6 101420 44
2011-08-18 07:25:14 51°21.986 2°48.627 12.2 354 16.6 101420 44
2011-08-18 07:25:19 51°22.003 2°48.615 12.3 356 16.6 101420 44
2011-08-18 07:25:23 51°22.016 2°48.606 10.4 355 16.6 101420 44
2011-08-18 07:25:29 51°22.036 2°48.592 16.5 355 16.6 101410 43
2011-08-18 07:25:34 51°22.052 2°48.581 14.6 355 16.6 101410 43
2011-08-18 07:25:39 51°22.069 2°48.569 13.8 355 16.6 101410 43
2011-08-18 07:25:43 51°22.082 2°48.56 15.5 355 16.6 101410 43
2011-08-18 07:25:49 51°22.101 2°48.545 11 355 16.6 101420 44
2011-08-18 07:25:54 51°22.118 2°48.533 13.6 355 16.6 101420 44
2011-08-18 07:25:59 51°22.134 2°48.521 16.1 357 16.6 101410 43
2011-08-18 07:26:03 51°22.147 2°48.511 16.7 358 16.6 101410 43
2011-08-18 07:26:09 51°22.166 2°48.496 9.6 357 16.6 101410 44
2011-08-18 07:26:14 51°22.182 2°48.483 8.7 358 16.6 101410 44
2011-08-18 07:26:19 51°22.198 2°48.47 10.3 359 16.6 101410 43
2011-08-18 07:26:23 51°22.211 2°48.461 13.1 359 16.6 101410 43
2011-08-18 07:26:28 51°22.227 2°48.448 11.9 358 16.6 101410 42
2011-08-18 07:26:34 51°22.246 2°48.433 13.5 357 16.6 101410 42
2011-08-18 07:26:39 51°22.262 2°48.421 12.2 358 16.6 101430 44
2011-08-18 07:26:43 51°22.275 2°48.411 12.6 358 16.6 101430 44
2011-08-18 07:26:49 51°22.295 2°48.398 14.3 358 16.6 101410 44
2011-08-18 07:26:54 51°22.311 2°48.386 10.2 356 16.6 101410 44
2011-08-18 07:26:59 51°22.327 2°48.376 14.7 354 16.6 101420 44
2011-08-18 07:27:03 51°22.341 2°48.367 10.4 352 16.6 101420 44
2011-08-18 07:27:08 51°22.357 2°48.356 11 355 16.6 101420 44
2011-08-18 07:27:14 51°22.377 2°48.343 11.1 356 16.6 101420 44
2011-08-18 07:27:19 51°22.393 2°48.332 13.7 355 16.7 101420 44
2011-08-18 07:27:23 51°22.406 2°48.324 15.4 352 16.7 101420 44
2011-08-18 07:27:29 51°22.426 2°48.311 13.1 355 16.6 101420 44
2011-08-18 07:27:34 51°22.442 2°48.299 15.8 357 16.6 101420 44
2011-08-18 07:27:39 51°22.458 2°48.287 15.3 357 16.6 101430 44
2011-08-18 07:27:43 51°22.471 2°48.277 16.9 357 16.6 101430 44
2011-08-18 07:27:49 51°22.49 2°48.263 12 358 16.6 101420 44
2011-08-18 07:27:54 51°22.506 2°48.251 14.9 358 16.6 101420 44
2011-08-18 07:27:59 51°22.522 2°48.239 13.1 358 16.6 101410 43
2011-08-18 07:28:03 51°22.535 2°48.228 14 360 16.6 101410 43
2011-08-18 07:28:08 51°22.551 2°48.216 15.3 356 16.6 101430 43
2011-08-18 07:28:14 51°22.57 2°48.201 9.8 357 16.6 101430 43
2011-08-18 07:28:19 51°22.586 2°48.189 13.2 358 16.6 101420 43
2011-08-18 07:28:23 51°22.598 2°48.179 14.5 358 16.6 101420 43
2011-08-18 07:28:29 51°22.617 2°48.164 10.5 359 16.7 101420 44
2011-08-18 07:28:34 51°22.634 2°48.151 5.6 358 16.7 101420 44
2011-08-18 07:28:39 51°22.649 2°48.139 10.6 355 16.6 101420 43
2011-08-18 07:28:43 51°22.662 2°48.129 10.2 355 16.6 101420 43
2011-08-18 07:28:48 51°22.679 2°48.117 16.3 358 16.6 101430 44
2011-08-18 07:28:54 51°22.698 2°48.103 15.7 357 16.6 101430 44
2011-08-18 07:28:59 51°22.714 2°48.091 11.4 357 16.6 101410 44
2011-08-18 07:29:03 51°22.726 2°48.081 10.8 359 16.6 101410 44
2011-08-18 07:29:09 51°22.746 2°48.067 6.1 358 16.7 101420 43
2011-08-18 07:29:14 51°22.761 2°48.054 15.2 356 16.7 101420 43
2011-08-18 07:29:19 51°22.778 2°48.041 14 359 16.7 101410 43
2011-08-18 07:29:23 51°22.79 2°48.031 12.3 356 16.7 101410 43
2011-08-18 07:29:28 51°22.806 2°48.02 17.1 354 16.6 101420 44
2011-08-18 07:29:34 51°22.825 2°48.006 9.8 354 16.6 101420 44
2011-08-18 07:29:39 51°22.842 2°47.994 16.6 355 16.7 101430 44
2011-08-18 07:29:43 51°22.855 2°47.985 14.6 354 16.7 101430 44
2011-08-18 07:29:49 51°22.874 2°47.972 11.2 353 16.7 101420 44
2011-08-18 07:29:54 51°22.89 2°47.96 16.7 354 16.7 101420 44
2011-08-18 07:29:59 51°22.907 2°47.949 11 354 16.7 101430 44
2011-08-18 07:30:03 51°22.92 2°47.941 10.8 354 16.7 101430 44
2011-08-18 07:30:09 51°22.94 2°47.927 11.2 353 16.6 101420 43
2011-08-18 07:30:14 51°22.956 2°47.915 12.7 355 16.6 101420 43
2011-08-18 07:30:19 51°22.971 2°47.903 15.9 356 16.6 101410 43
2011-08-18 07:30:23 51°22.984 2°47.893 11.5 355 16.6 101410 43
2011-08-18 07:30:29 51°23.004 2°47.88 14.6 358 16.6 101420 42
2011-08-18 07:30:34 51°23.02 2°47.868 14.9 357 16.6 101420 42
2011-08-18 07:30:39 51°23.037 2°47.857 13.2 358 16.6 101420 43
2011-08-18 07:30:43 51°23.05 2°47.848 11.3 357 16.6 101420 43
2011-08-18 07:30:48 51°23.066 2°47.837 9.5 357 16.6 101410 43
2011-08-18 07:30:54 51°23.086 2°47.823 16.2 358 16.6 101410 43
2011-08-18 07:30:59 51°23.102 2°47.811 9.8 357 16.6 101410 43
2011-08-18 07:31:03 51°23.115 2°47.802 11.8 357 16.6 101410 43
2011-08-18 07:31:09 51°23.135 2°47.789 11 357 16.6 101410 43
2011-08-18 07:31:14 51°23.152 2°47.777 11.4 355 16.6 101410 43
2011-08-18 07:31:19 51°23.168 2°47.766 11.7 355 16.6 101420 42
2011-08-18 07:31:23 51°23.181 2°47.758 15.4 356 16.6 101420 42
2011-08-18 07:31:28 51°23.197 2°47.746 6.2 354 16.6 101420 43
2011-08-18 07:31:34 51°23.217 2°47.732 15.5 352 16.6 101420 43
2011-08-18 07:31:39 51°23.233 2°47.721 11.8 355 16.6 101420 43
2011-08-18 07:31:43 51°23.246 2°47.711 15.6 355 16.6 101420 43
2011-08-18 07:31:49 51°23.265 2°47.696 11.5 355 16.6 101410 42
2011-08-18 07:31:54 51°23.281 2°47.683 15.1 355 16.6 101410 42
2011-08-18 07:31:59 51°23.297 2°47.67 13 356 16.6 101420 43
2011-08-18 07:32:03 51°23.31 2°47.66 14 354 16.6 101420 43
2011-08-18 07:32:09 51°23.329 2°47.644 15.1 357 16.6 101410 43
2011-08-18 07:32:14 51°23.346 2°47.632 11.3 356 16.6 101410 43
2011-08-18 07:32:19 51°23.361 2°47.62 13.1 354 16.6 101420 42
2011-08-18 07:32:23 51°23.374 2°47.61 10 354 16.6 101420 42
2011-08-18 07:32:29 51°23.394 2°47.596 14.1 354 16.6 101420 42
2011-08-18 07:32:34 51°23.41 2°47.584 10.4 356 16.6 101420 42
2011-08-18 07:32:39 51°23.426 2°47.572 16.3 356 16.6 101420 43
2011-08-18 07:32:43 51°23.439 2°47.563 13 357 16.6 101420 43
2011-08-18 07:32:48 51°23.456 2°47.551 12 354 16.6 101420 43
2011-08-18 07:32:54 51°23.475 2°47.538 14.6 354 16.6 101420 43
2011-08-18 07:32:59 51°23.492 2°47.526 13.2 355 16.6 101420 43
2011-08-18 07:33:03 51°23.505 2°47.517 11.2 357 16.6 101420 43
2011-08-18 07:33:09 51°23.524 2°47.504 11.2 356 16.6 101410 44
2011-08-18 07:33:14 51°23.54 2°47.492 10.9 355 16.6 101410 44
2011-08-18 07:33:19 51°23.556 2°47.481 10.1 355 16.6 101420 43
2011-08-18 07:33:23 51°23.569 2°47.472 14 356 16.6 101420 43
2011-08-18 07:33:28 51°23.586 2°47.46 11.3 357 16.6 101420 43
2011-08-18 07:33:34 51°23.604 2°47.445 15.1 357 16.6 101420 43
2011-08-18 07:33:39 51°23.62 2°47.432 14.1 359 16.6 101420 44
2011-08-18 07:33:43 51°23.633 2°47.422 15.2 355 16.6 101420 44
2011-08-18 07:33:49 51°23.652 2°47.408 15.6 355 16.6 101410 43
2011-08-18 07:33:54 51°23.668 2°47.396 12.4 355 16.6 101410 43
2011-08-18 07:33:59 51°23.685 2°47.384 13.9 356 16.6 101420 43
2011-08-18 07:34:03 51°23.697 2°47.374 11.5 355 16.6 101420 43
2011-08-18 07:34:09 51°23.716 2°47.36 11.7 356 16.6 101410 43
2011-08-18 07:34:14 51°23.732 2°47.348 13.8 358 16.6 101410 43
2011-08-18 07:34:19 51°23.748 2°47.336 13.4 360 16.5 101410 42
2011-08-18 07:34:23 51°23.761 2°47.327 11.5 357 16.5 101410 42
2011-08-18 07:34:29 51°23.781 2°47.313 14.3 360 16.5 101410 40
2011-08-18 07:34:34 51°23.797 2°47.302 11 357 16.5 101410 40
2011-08-18 07:34:39 51°23.813 2°47.29 13 357 16.5 101410 42
2011-08-18 07:34:43 51°23.826 2°47.282 11.4 358 16.5 101410 42
2011-08-18 07:34:49 51°23.846 2°47.269 11.1 357 16.6 101420 43
2011-08-18 07:34:54 51°23.862 2°47.258 10.5 352 16.6 101420 43
2011-08-18 07:34:59 51°23.879 2°47.247 15 355 16.6 101420 43
2011-08-18 07:35:03 51°23.892 2°47.238 11.5 355 16.6 101420 43
2011-08-18 07:35:09 51°23.911 2°47.226 11.5 354 16.6 101410 43
2011-08-18 07:35:14 51°23.928 2°47.214 16.4 354 16.6 101410 43
2011-08-18 07:35:19 51°23.944 2°47.203 15.9 355 16.7 101420 43
2011-08-18 07:35:23 51°23.957 2°47.194 12.1 355 16.7 101420 43
2011-08-18 07:35:28 51°23.973 2°47.183 10.8 356 16.7 101420 43
2011-08-18 07:35:34 51°23.993 2°47.169 12 357 16.7 101420 43
2011-08-18 07:35:39 51°24.009 2°47.158 13.2 356 16.7 101420 42
2011-08-18 07:35:43 51°24.022 2°47.148 10.7 352 16.7 101420 42
2011-08-18 07:35:49 51°24.041 2°47.134 12.2 357 16.7 101420 42
2011-08-18 07:35:54 51°24.058 2°47.122 13.5 358 16.7 101420 42
2011-08-18 07:35:59 51°24.074 2°47.109 14 358 16.6 101410 42
2011-08-18 07:36:03 51°24.086 2°47.099 10.4 358 16.6 101410 42
2011-08-18 07:36:08 51°24.102 2°47.087 11.5 355 16.7 101430 43
2011-08-18 07:36:14 51°24.121 2°47.071 11.2 359 16.7 101430 43
2011-08-18 07:36:19 51°24.137 2°47.058 13.4 358 16.6 101410 43
2011-08-18 07:36:23 51°24.15 2°47.048 10.7 360 16.6 101410 43
2011-08-18 07:36:29 51°24.169 2°47.033 13.4 360 16.6 101420 42
2011-08-18 07:36:34 51°24.185 2°47.02 15.2 359 16.6 101420 42
2011-08-18 07:36:39 51°24.201 2°47.008 11.3 357 16.6 101420 42
2011-08-18 07:36:43 51°24.214 2°46.999 15.7 358 16.6 101420 42
2011-08-18 07:36:49 51°24.233 2°46.984 10.5 359 16.6 101420 42
2011-08-18 07:36:54 51°24.249 2°46.973 9.6 359 16.6 101420 42
2011-08-18 07:36:59 51°24.265 2°46.961 10.4 357 16.6 101410 43
2011-08-18 07:37:03 51°24.278 2°46.952 11.2 355 16.6 101410 43
2011-08-18 07:37:09 51°24.298 2°46.939 13.3 355 16.6 101410 40
2011-08-18 07:37:14 51°24.314 2°46.928 16.9 357 16.6 101410 40
2011-08-18 07:37:19 51°24.33 2°46.918 12.2 353 16.6 101420 43
2011-08-18 07:37:23 51°24.343 2°46.909 10.9 355 16.6 101420 43
2011-08-18 07:37:28 51°24.359 2°46.899 10.6 355 16.7 101420 43
2011-08-18 07:37:34 51°24.379 2°46.886 15.7 356 16.7 101420 43
2011-08-18 07:37:39 51°24.395 2°46.874 12 356 16.7 101420 44
2011-08-18 07:37:43 51°24.408 2°46.866 11.5 356 16.7 101420 44
2011-08-18 07:37:49 51°24.427 2°46.852 11.8 356 16.7 101420 43
2011-08-18 07:37:54 51°24.443 2°46.84 11.7 357 16.7 101420 43
2011-08-18 07:37:59 51°24.458 2°46.828 15.9 358 16.7 101410 44
2011-08-18 07:38:03 51°24.471 2°46.818 6.3 357 16.7 101410 44
2011-08-18 07:38:08 51°24.486 2°46.805 10.5 358 16.6 101420 44
2011-08-18 07:38:14 51°24.505 2°46.79 12.2 357 16.6 101420 44
2011-08-18 07:38:19 51°24.521 2°46.777 9.6 357 16.6 101410 43
2011-08-18 07:38:23 51°24.533 2°46.767 13.1 357 16.6 101410 43
2011-08-18 07:38:29 51°24.552 2°46.752 11.1 358 16.6 101430 44
2011-08-18 07:38:34 51°24.567 2°46.738 10.7 359 16.6 101430 44
2011-08-18 07:38:39 51°24.583 2°46.726 14.9 358 16.6 101410 44
2011-08-18 07:38:43 51°24.595 2°46.716 10.3 358 16.6 101410 44
2011-08-18 07:38:49 51°24.614 2°46.701 13.9 359 16.6 101420 44
2011-08-18 07:38:54 51°24.63 2°46.689 13.3 357 16.6 101420 44
2011-08-18 07:38:59 51°24.645 2°46.677 15.5 359 16.6 101410 44
2011-08-18 07:39:03 51°24.658 2°46.668 9.5 358 16.6 101410 44
2011-08-18 07:39:09 51°24.677 2°46.653 11.4 359 16.6 101420 44
2011-08-18 07:39:14 51°24.693 2°46.641 12.3 356 16.6 101420 44
2011-08-18 07:39:19 51°24.709 2°46.629 6.2 358 16.6 101420 44
2011-08-18 07:39:23 51°24.722 2°46.62 12.6 358 16.6 101420 44
2011-08-18 07:39:29 51°24.741 2°46.605 15.1 359 16.6 101420 44
2011-08-18 07:39:34 51°24.757 2°46.593 12.7 357 16.6 101420 44
2011-08-18 07:39:39 51°24.772 2°46.581 15.3 357 16.6 101420 44
2011-08-18 07:39:43 51°24.785 2°46.571 13.6 357 16.6 101420 44
2011-08-18 07:39:49 51°24.805 2°46.557 14.2 357 16.6 101420 43
2011-08-18 07:39:54 51°24.821 2°46.545 10.1 355 16.6 101420 43
2011-08-18 07:39:59 51°24.837 2°46.534 9.8 359 16.6 101420 44
2011-08-18 07:40:03 51°24.85 2°46.525 13.2 357 16.6 101420 44
2011-08-18 07:40:08 51°24.866 2°46.513 12.4 358 16.6 101420 44
2011-08-18 07:40:14 51°24.886 2°46.499 11.9 357 16.6 101420 44
2011-08-18 07:40:19 51°24.902 2°46.488 10.5 356 16.6 101420 45
2011-08-18 07:40:23 51°24.915 2°46.478 9.9 356 16.6 101420 45
2011-08-18 07:40:29 51°24.934 2°46.465 15.8 356 16.6 101430 45
2011-08-18 07:40:34 51°24.951 2°46.454 15.7 357 16.6 101430 45
2011-08-18 07:40:39 51°24.967 2°46.442 12.2 356 16.6 101430 44
2011-08-18 07:40:43 51°24.98 2°46.433 11 356 16.6 101430 44
2011-08-18 07:40:49 51°24.999 2°46.419 10.1 355 16.6 101430 45
2011-08-18 07:40:54 51°25.015 2°46.407 13.2 356 16.6 101430 45
2011-08-18 07:40:59 51°25.032 2°46.395 11.8 353 16.6 101420 45
2011-08-18 07:41:03 51°25.045 2°46.386 12.1 356 16.6 101420 45
2011-08-18 07:41:09 51°25.064 2°46.371 15.9 358 16.6 101420 45
2011-08-18 07:41:14 51°25.08 2°46.358 14.7 356 16.6 101420 45
2011-08-18 07:41:19 51°25.095 2°46.346 11.5 354 16.6 101420 45
2011-08-18 07:41:23 51°25.108 2°46.335 11.5 355 16.6 101420 45
2011-08-18 07:41:29 51°25.127 2°46.319 14.4 358 16.6 101420 44
2011-08-18 07:41:34 51°25.142 2°46.307 13 357 16.6 101420 44
2011-08-18 07:41:39 51°25.158 2°46.293 12.8 358 16.5 101410 43
2011-08-18 07:41:43 51°25.17 2°46.283 13.7 358 16.5 101410 43
2011-08-18 07:41:49 51°25.189 2°46.268 11.9 359 16.5 101420 44
2011-08-18 07:41:54 51°25.205 2°46.254 16.3 359 16.5 101420 44
2011-08-18 07:41:59 51°25.221 2°46.242 13.9 359 16.5 101420 44
2011-08-18 07:42:03 51°25.234 2°46.232 11.3 359 16.5 101420 44
2011-08-18 07:42:08 51°25.25 2°46.218 13.8 358 16.5 101420 43
2011-08-18 07:42:14 51°25.269 2°46.204 10.7 359 16.5 101420 43
2011-08-18 07:42:19 51°25.286 2°46.191 15.2 358 16.5 101410 43
2011-08-18 07:42:23 51°25.299 2°46.181 6.3 360 16.5 101410 43
2011-08-18 07:42:29 51°25.318 2°46.167 12.8 359 16.5 101420 42
2011-08-18 07:42:34 51°25.335 2°46.156 11.2 360 16.5 101420 42
2011-08-18 07:42:39 51°25.352 2°46.145 6.7 358 16.6 101420 44
2011-08-18 07:42:43 51°25.365 2°46.137 11 357 16.6 101420 44
2011-08-18 07:42:48 51°25.382 2°46.127 11.3 -999 16.6 101410 43
2011-08-18 07:42:54 51°25.401 2°46.115 9.5 358 16.6 101410 43
2011-08-18 07:42:59 51°25.418 2°46.105 14.8 359 16.6 101420 43
2011-08-18 07:43:03 51°25.432 2°46.097 14 355 16.6 101420 43
2011-08-18 07:43:09 51°25.452 2°46.085 15.2 352 16.6 101430 43
2011-08-18 07:43:14 51°25.469 2°46.076 10.9 357 16.6 101430 43
2011-08-18 07:43:19 51°25.485 2°46.066 13.6 357 16.6 101430 44
2011-08-18 07:43:23 51°25.499 2°46.057 14.8 354 16.6 101430 44
2011-08-18 07:43:29 51°25.519 2°46.045 13.1 355 16.7 101420 44
2011-08-18 07:43:34 51°25.535 2°46.034 12.5 355 16.7 101420 44
2011-08-18 07:43:39 51°25.552 2°46.023 16.2 357 16.6 101420 43
2011-08-18 07:43:43 51°25.565 2°46.013 13.7 358 16.6 101420 43
2011-08-18 07:43:49 51°25.585 2°46 12.9 359 16.7 101420 44
2011-08-18 07:43:54 51°25.601 2°45.988 10.6 359 16.7 101420 44
2011-08-18 07:43:59 51°25.618 2°45.977 12.1 360 16.6 101410 43
2011-08-18 07:44:03 51°25.631 2°45.968 15.5 360 16.6 101410 43
2011-08-18 07:44:08 51°25.647 2°45.955 9.8 356 16.6 101410 42
2011-08-18 07:44:14 51°25.666 2°45.941 9.5 356 16.6 101410 42
2011-08-18 07:44:19 51°25.682 2°45.928 14.8 1 16.6 101410 43
2011-08-18 07:44:23 51°25.695 2°45.918 9.9 1 16.6 101410 43
2011-08-18 07:44:29 51°25.715 2°45.903 14.1 359 16.6 101400 44
2011-08-18 07:44:34 51°25.731 2°45.89 13.9 359 16.6 101400 44
2011-08-18 07:44:39 51°25.747 2°45.877 6.4 1 16.7 101420 43
2011-08-18 07:44:43 51°25.76 2°45.867 15.5 357 16.7 101420 43
2011-08-18 07:44:48 51°25.776 2°45.854 12 359 16.7 101410 43
2011-08-18 07:44:54 51°25.795 2°45.839 15.2 358 16.7 101410 43
2011-08-18 07:44:59 51°25.812 2°45.826 10.3 358 16.6 101420 43
2011-08-18 07:45:03 51°25.824 2°45.816 13.9 356 16.6 101420 43
2011-08-18 07:45:08 51°25.841 2°45.804 11.7 358 16.7 101420 41
2011-08-18 07:45:14 51°25.86 2°45.789 14.5 355 16.7 101420 41
2011-08-18 07:45:19 51°25.877 2°45.777 12.8 357 16.7 101410 44
2011-08-18 07:45:23 51°25.89 2°45.766 14.1 356 16.7 101410 44
2011-08-18 07:45:29 51°25.909 2°45.752 12.2 356 16.7 101420 43
2011-08-18 07:45:34 51°25.925 2°45.74 12.7 358 16.7 101420 43
2011-08-18 07:45:39 51°25.941 2°45.728 13.2 358 16.7 101410 44
2011-08-18 07:45:43 51°25.954 2°45.718 11.3 359 16.7 101410 44
2011-08-18 07:45:49 51°25.974 2°45.704 10.2 359 16.7 101420 43
2011-08-18 07:45:54 51°25.99 2°45.692 10.4 357 16.7 101420 43
2011-08-18 07:45:59 51°26.007 2°45.68 11.4 357 16.7 101410 43
2011-08-18 07:46:03 51°26.02 2°45.67 14.3 357 16.7 101410 43
2011-08-18 07:46:09 51°26.039 2°45.656 15.1 358 16.7 101420 43
2011-08-18 07:46:14 51°26.055 2°45.644 11.9 360 16.7 101420 43
2011-08-18 07:46:19 51°26.071 2°45.633 10.7 359 16.7 101420 43
2011-08-18 07:46:23 51°26.085 2°45.623 10.7 -999 16.7 101420 43
2011-08-18 07:46:28 51°26.101 2°45.611 10 360 16.7 101420 43
2011-08-18 07:46:34 51°26.12 2°45.597 12.2 358 16.7 101420 43
2011-08-18 07:46:39 51°26.136 2°45.585 13.7 357 16.7 101420 43
2011-08-18 07:46:43 51°26.149 2°45.576 13.4 357 16.7 101420 43
2011-08-18 07:46:49 51°26.168 2°45.563 10.6 355 16.6 101420 43
2011-08-18 07:46:54 51°26.185 2°45.552 9.8 355 16.6 101420 43
2011-08-18 07:46:59 51°26.201 2°45.541 12.7 352 16.6 101420 43
2011-08-18 07:47:03 51°26.214 2°45.532 6 355 16.6 101420 43
2011-08-18 07:47:08 51°26.23 2°45.522 11.5 352 16.7 101430 44
2011-08-18 07:47:14 51°26.25 2°45.508 17 355 16.7 101430 44
2011-08-18 07:47:19 51°26.265 2°45.497 11.8 355 16.6 101430 44
2011-08-18 07:47:23 51°26.278 2°45.488 11.6 356 16.6 101430 44
2011-08-18 07:47:28 51°26.294 2°45.476 10.8 354 16.7 101430 44
2011-08-18 07:47:34 51°26.313 2°45.462 16.4 356 16.7 101430 44
2011-08-18 07:47:39 51°26.329 2°45.45 13.1 356 16.6 101410 44
2011-08-18 07:47:43 51°26.342 2°45.44 11.2 358 16.6 101410 44
2011-08-18 07:47:49 51°26.361 2°45.426 10.3 357 16.7 101410 42
2011-08-18 07:47:54 51°26.376 2°45.413 13.7 356 16.7 101410 42
2011-08-18 07:47:59 51°26.392 2°45.401 14.4 355 16.6 101430 43
2011-08-18 07:48:03 51°26.405 2°45.39 10.1 354 16.6 101430 43
2011-08-18 07:48:08 51°26.42 2°45.377 14.7 354 16.7 101420 44
2011-08-18 07:48:14 51°26.439 2°45.362 11 355 16.7 101420 44
2011-08-18 07:48:19 51°26.455 2°45.349 14.3 355 16.7 101430 44
2011-08-18 07:48:23 51°26.468 2°45.339 10.6 354 16.7 101430 44
2011-08-18 07:48:29 51°26.487 2°45.324 9.4 352 16.7 101430 44
2011-08-18 07:48:34 51°26.502 2°45.312 6 355 16.7 101430 44
2011-08-18 07:48:39 51°26.518 2°45.299 10.8 356 16.6 101430 43
2011-08-18 07:48:43 51°26.53 2°45.29 13.7 357 16.6 101430 43
2011-08-18 07:48:48 51°26.546 2°45.278 16.1 357 16.6 101440 44
2011-08-18 07:48:54 51°26.565 2°45.263 15.1 359 16.6 101440 44
2011-08-18 07:48:59 51°26.581 2°45.251 12.1 357 16.7 101430 44
2011-08-18 07:49:03 51°26.594 2°45.241 9.8 355 16.7 101430 44
2011-08-18 07:49:08 51°26.61 2°45.229 10.2 357 16.6 101430 44
2011-08-18 07:49:14 51°26.629 2°45.214 11.7 356 16.6 101430 44
2011-08-18 07:49:19 51°26.644 2°45.202 12.1 356 16.6 101420 43
2011-08-18 07:49:23 51°26.658 2°45.193 13.1 355 16.6 101420 43
2011-08-18 07:49:28 51°26.673 2°45.181 6.1 357 16.6 101430 44
2011-08-18 07:49:34 51°26.693 2°45.167 10.6 355 16.6 101430 44
2011-08-18 07:49:39 51°26.709 2°45.155 14.1 354 16.6 101440 44
2011-08-18 07:49:43 51°26.721 2°45.145 14.1 356 16.6 101440 44
2011-08-18 07:49:48 51°26.738 2°45.133 15.6 354 16.6 101430 43
2011-08-18 07:49:54 51°26.757 2°45.118 13.8 355 16.6 101430 43
2011-08-18 07:49:59 51°26.773 2°45.105 10.5 356 16.6 101430 44
2011-08-18 07:50:04 51°26.789 2°45.094 10.3 357 16.6 101430 44
2011-08-18 07:50:09 51°26.805 2°45.082 14.6 352 16.6 101430 43
2011-08-18 07:50:14 51°26.821 2°45.07 10.4 354 16.6 101430 43
2011-08-18 07:50:19 51°26.837 2°45.059 13.9 354 16.6 101430 43
2011-08-18 07:50:23 51°26.85 2°45.049 14.8 355 16.6 101430 43
2011-08-18 07:50:28 51°26.866 2°45.038 12.7 356 16.6 101430 42
2011-08-18 07:50:34 51°26.886 2°45.024 10.6 -999 16.6 101430 42
2011-08-18 07:50:39 51°26.901 2°45.012 15.1 355 16.6 101430 44
2011-08-18 07:50:43 51°26.914 2°45.003 12.8 355 16.6 101430 44
2011-08-18 07:50:49 51°26.934 2°44.988 15.5 358 16.6 101420 43
2011-08-18 07:50:54 51°26.95 2°44.977 12.4 354 16.6 101420 43
2011-08-18 07:50:59 51°26.966 2°44.964 14.3 355 16.6 101440 43
2011-08-18 07:51:03 51°26.978 2°44.954 14.7 356 16.6 101440 43
2011-08-18 07:51:08 51°26.994 2°44.942 12.1 355 16.6 101430 44
2011-08-18 07:51:14 51°27.014 2°44.927 11.1 355 16.6 101430 44
2011-08-18 07:51:19 51°27.03 2°44.914 14.2 354 16.6 101430 44
2011-08-18 07:51:23 51°27.042 2°44.904 11.5 355 16.6 101430 44
2011-08-18 07:51:28 51°27.058 2°44.891 6.2 356 16.6 101420 44
2011-08-18 07:51:34 51°27.077 2°44.876 10.8 356 16.6 101420 44
2011-08-18 07:51:39 51°27.093 2°44.863 12.7 357 16.6 101420 43
2011-08-18 07:51:43 51°27.105 2°44.853 11.9 357 16.6 101420 43
2011-08-18 07:51:49 51°27.124 2°44.838 10.2 356 16.5 101420 42
2011-08-18 07:51:54 51°27.14 2°44.825 11.5 357 16.5 101420 42
2011-08-18 07:51:59 51°27.156 2°44.812 9.6 357 16.5 101430 43
2011-08-18 07:52:03 51°27.169 2°44.802 10.2 357 16.5 101430 43
2011-08-18 07:52:08 51°27.185 2°44.789 14.4 355 16.5 101420 42
2011-08-18 07:52:14 51°27.204 2°44.774 11.5 355 16.5 101420 42
2011-08-18 07:52:19 51°27.22 2°44.761 11.4 357 16.5 101420 42
2011-08-18 07:52:23 51°27.233 2°44.751 11 351 16.5 101420 42
2011-08-18 07:52:28 51°27.249 2°44.74 14.2 354 16.5 101430 43
2011-08-18 07:52:34 51°27.268 2°44.726 11.6 355 16.5 101430 43
2011-08-18 07:52:39 51°27.284 2°44.714 10.9 354 16.6 101420 43
2011-08-18 07:52:44 51°27.3 2°44.703 11 354 16.6 101420 43
2011-08-18 07:52:49 51°27.317 2°44.691 10.4 356 16.6 101430 43
2011-08-18 07:52:54 51°27.333 2°44.679 13.7 356 16.6 101430 43
2011-08-18 07:52:59 51°27.349 2°44.668 10.7 350 16.6 101420 43
2011-08-18 07:53:03 51°27.362 2°44.659 15 353 16.6 101420 43
2011-08-18 07:53:08 51°27.378 2°44.647 12.2 350 16.6 101430 42
2011-08-18 07:53:14 51°27.398 2°44.633 14.8 355 16.6 101430 42
2011-08-18 07:53:19 51°27.414 2°44.621 14.2 352 16.6 101430 43
2011-08-18 07:53:23 51°27.427 2°44.612 14.6 356 16.6 101430 43
2011-08-18 07:53:28 51°27.443 2°44.601 10.8 352 16.6 101430 43
2011-08-18 07:53:34 51°27.462 2°44.587 12.4 353 16.6 101430 43
2011-08-18 07:53:39 51°27.479 2°44.575 10.1 353 16.6 101410 43
2011-08-18 07:53:43 51°27.492 2°44.566 10.9 354 16.6 101410 43
2011-08-18 07:53:48 51°27.508 2°44.555 11 356 16.6 101430 43
2011-08-18 07:53:53 51°27.524 2°44.543 10.6 357 16.6 101430 43
2011-08-18 07:53:59 51°27.544 2°44.53 11.5 355 16.6 101430 42
2011-08-18 07:54:03 51°27.557 2°44.522 13.6 355 16.6 101430 42
2011-08-18 07:54:08 51°27.573 2°44.509 15.4 357 16.6 101420 42
2011-08-18 07:54:14 51°27.592 2°44.495 11.2 355 16.6 101420 42